Regional Weather Roundup
Issued by NWS

Current Version | Previous Version | Text Only | Print | Product List | Glossary On
Versions: 1 2 3 4 5 6 7 8 9 10 11 12 13 14 15 16 17 18 19 20 21 22 23 24 25 26 27 28 29 30 31 32 33 34 35 36 37 38 39 40 41 42 43 44 45 46 47 48 49 50
000
ASUS46 KLOX 222212
RWRCA

SOUTHERN CALIFORNIA WEATHER ROUNDUP
NATIONAL WEATHER SERVICE OXNARD CALIFORNIA
200 PM PST MON DEC 22 2014

NOTE: "FAIR" INDICATES FEW OR NO CLOUDS BELOW 12,000 FEET WITH NO
SIGNIFICANT WEATHER AND/OR OBSTRUCTIONS TO VISIBILITY.

  -  STATIONS PRECEEDED BY AN ASTERISK (*) ARE NOT NWS OR FAA
     STATIONS AND ARE NOT SUBJECT TO NWS AND FAA QUALITY CONTROL.

CAZ041-042-087-222300-
LA AND ORANGE COUNTY COASTAL AREAS


CITY           SKY/WX    TMP DP  RH WIND       PRES   REMARKS
L.A. DOWNTOWN  SUNNY     72  54  53 VRB3      29.95F
L.A. AIRPORT   FOG       63  59  88 W10       29.97F VSB 3/4
LONG BEACH     SUNNY     72  57  59 S8        29.95F HAZE

CITY           SKY/WX    TMP DP  RH WIND       PRES   REMARKS
AVALON           N/A     64 N/A N/A MISG        N/A
FULLERTON      SUNNY     75  49  39 W3        29.94F
*GETTY CENTER    N/A     72  50  46 SW7         N/A
HAWTHORNE      SUNNY     68  57  68 W8        29.96F HAZE
*LEO CARRILLO    N/A     68  58  70 S2          N/A
*LOS ALAMITOS  SUNNY     71  58  65 SW8       29.96F
*REDONDO BEACH   N/A     64  58  80 W3        29.95F
SANTA ANA      SUNNY     73  55  53 SW7       29.96F
STA MONICA APT MOSUNNY   65  58  78 W6        29.96F HAZE
TORRANCE       SUNNY     70  59  68 NW12      29.96F
*UCLA            N/A     70  50  49 SW5       29.93F

$$

CAZ547-548-048-222300-
LA COUNTY VALLEYS AND INLAND EMPIRE


CITY           SKY/WX    TMP DP  RH WIND       PRES   REMARKS
BURBANK        SUNNY     76  49  38 SE3       29.95F
VAN NUYS       SUNNY     80  42  25 N17G23    29.95F

CITY           SKY/WX    TMP DP  RH WIND       PRES   REMARKS
CORONA AIRPORT CLEAR     76  51  41 CALM      29.96F
*CHATSWORTH      N/A     81  40  23 N12       29.92S
CHINO          SUNNY     76  52  43 W3        29.97F
MARCH AFB      SUNNY     72  47  40 VRB2      29.98F
*NORTHRIDGE      N/A     81  32  17 N6G13       N/A
ONTARIO        SUNNY     75  47  36 VRB3      29.96F
*PASADENA        N/A     75  50  41 E3          N/A
POMONA         SUNNY     72  48  43 W12       29.99F VSB 1
RIVERSIDE      SUNNY     74  48  39 CALM      29.96F
SAN BERNARDINO SUNNY     72  45  37 SW5       29.97F
*SAN GABRIEL     N/A     77  44  31 S5        29.92F
*SAN RAFAEL HI   N/A     77  49  36 E3          N/A
*SAUGUS          N/A     75  43  31 NE3         N/A
*WHITEMAN AP   SUNNY     75  46  35 E7        29.99F
*WHITTIER HILL   N/A     76  53  43 SW3         N/A
*WOODLAND HILL   N/A     84  34  16 W1          N/A

$$

CAZ054-055-222300-
LA AND SAN BERNARDINO COUNTY MOUNTAINS


CITY           SKY/WX    TMP DP  RH WIND       PRES   REMARKS
*BIG BEAR AIRP CLEAR     57  21  24 NW9G21    30.23F
*CHILAO          N/A     69  19  15 N9G22       N/A
MT WILSON NWS    N/A     72  27  18 CALM        N/A
SANDBERG       MOSUNNY   51  43  74 NW38G47   30.15F
*WARM SPRINGS    N/A     66  32  28 W14         N/A

$$

CAZ028-029-059-060-099-222300-
ANTELOPE VALLEY AND SURROUNDING AREAS


CITY           SKY/WX    TMP DP  RH WIND       PRES   REMARKS
LANCASTER      SUNNY     63  46  54 W21       30.07F
PALMDALE       SUNNY     67  43  41 NW17      30.08F
*POPPY PARK      N/A     63  45  51 W18G35      N/A

CITY           SKY/WX    TMP DP  RH WIND       PRES   REMARKS
29 PALMS       SUNNY     75  37  25 NW13      30.04F
BARSTOW/DAGGET SUNNY     67  44  43 W16       30.04F
BISHOP         SUNNY     74  27  17 N21G33    30.09F
CHINA LAKE     SUNNY     59  43  55 VRB3      30.05F
EDWARDS AFB    SUNNY     64  50  60 E2        30.05F
MOJAVE         FAIR      63  45  51 CALM      30.08F
NEEDLES        SUNNY     71  40  32 CALM      29.92F
VICTORVILLE    SUNNY     64  43  45 W6        30.09F

$$

CAZ039-040-222300-
VENTURA AND SANTA BARBARA COUNTY COAST


CITY           SKY/WX    TMP DP  RH WIND       PRES   REMARKS
CAMARILLO      SUNNY     75  48  38 SW6       29.95F
NWS OXNARD       N/A     75  47  36 CALM      29.94F
OXNARD AIRPORT SUNNY     70  55  59 W7        29.96F
*POINT MUGU    SUNNY     68  60  75 SW6       29.96F
SBA APT/GOLETA SUNNY     72  58  61 SE8       29.94F
*SANTA BARBARA   N/A     84  46  25 CALM      30.02F
*VENTURA         N/A     79  46  30 SW6       29.99S

$$

CAZ044-045-222300-
VENTURA COUNTY VALLEYS


CITY           SKY/WX    TMP DP  RH WIND       PRES   REMARKS
*SIMI VALLEY     N/A     80  43  26 NW1       29.91F
*OJAI            N/A     76  47  34 CALM      29.91F
*FILLMORE        N/A     81  50  33 CALM      29.85F

$$

CAZ053-222300-
VENTURA COUNTY MOUNTAINS


CITY           SKY/WX    TMP DP  RH WIND       PRES   REMARKS
*LOCKWOOD VLY    N/A     61  43  51 MISG        N/A
*ROSE VALLEY     N/A     75  39  27 MISG        N/A

$$

CAZ034-035-036-222300-
CENTRAL COAST AND SANTA YNEZ VALLEY


CITY           SKY/WX    TMP DP  RH WIND       PRES   REMARKS
SAN LUIS OBISP SUNNY     70  52  52 NE10G20   30.10F
SANTA MARIA    SUNNY     72  51  47 N14G28    30.08F

CITY           SKY/WX    TMP DP  RH WIND       PRES   REMARKS
*CAL POLY SLO    N/A     70  55  60 W9          N/A
*LOMPOC        SUNNY     73  52  46 NW10G20   30.05F
*PISMO BEACH     N/A     71  54  54 NE7       30.09F
*SANTA YNEZ    FAIR      75  43  31 NW10      30.00F

$$

CAZ037-038-051-222300-
SAN LUIS OBISPO COUNTY INTERIOR AND CUYAMA VALLEY


CITY           SKY/WX    TMP DP  RH WIND       PRES   REMARKS
*CUYAMA          N/A     59  50  73 N3        30.15F
PASO ROBLES    SUNNY     64  55  72 NW5       30.15F

$$

CAZ032-033-061-222300-
SOUTHERN DESERTS


CITY           SKY/WX    TMP DP  RH WIND       PRES   REMARKS
BLYTHE         SUNNY     70  47  43 S7        29.91F
IMPERIAL       SUNNY     75  49  39 CALM      29.91F
PALM SPRINGS   SUNNY     75  46  35 VRB3      29.93F
THERMAL        SUNNY     70  49  47 SE9       29.91F

$$

ELSEWHERE ACROSS THE WESTERN UNITED STATES AND MEXICO


CITY           SKY/WX    TMP DP  RH WIND       PRES   REMARKS
DENVER, CO     SNOW      29  27  92 N17       29.72R VSB 1/4 WCI  17
GRAND CANYON,  SUNNY     51  33  50 NW12G25   30.00S
HONOLULU, HI   PTSUNNY   73  68  83 N9G18     30.02F
KAHULUI, MAUI  MOSUNNY   81  66  61 N13       30.00F
LAKE TAHOE, CA SUNNY     57  31  37 NE5       30.31S
LAS VEGAS, NV  MOSUNNY   74  36  25 CALM      29.93F
MAMMOTH LAKES, FAIR      59  21  23 NW10G20   30.29F
MEXICO CITY, M CLOUDY    68  32  26 SE6       30.10F
PHOENIX, AZ    SUNNY     65  42  43 VRB5      29.89F
PORTLAND, OR   PTSUNNY   54  46  74 N3        30.36F
RENO, NV       PTSUNNY   60  38  43 N16       30.29F
SALT LAKE CITY PTSUNNY   45  31  58 NW25      29.98S
SAN DIEGO, CA  SUNNY     71  52  50 NW10      29.96F
SAN FRANCISCO, MOSUNNY   60  58  92 NE3       30.20F
SAN JOSE, CA   PTSUNNY   62  54  74 NW8       30.19F
SEATTLE, WA    PTSUNNY   51  41  68 S5        30.36F
TIJUANA, MEX   SUNNY     73  48  40 W7        29.98F

$$

STATION/POSITION TIME  TEMP    WIND        PRES    VSBY  WAVE
                       AIR SEA DIR/SP/G                  HT/PER
                 (UTC) (F)     (DEG/KT/KT) (MB)    (MI)  (FT/S)
POINT ARGUELLO B NOT AVBL
WEST SANTA BARBA 2200   66 62  330/ 19/ 23 1015.0F        10/14
POINT CONCEPTION NOT AVBL
EAST SANTA BARBA NOT AVBL
SANTA MONICA BAY 2200   65 64  210/  2/  4 1015.3F         6/14



USA.gov is the U.S. government's official web portal to all federal, state and local government web resources and services.